Weather History for Ishigakijima, Japan

Change the Weather History Date:

Friday, February 15, 2013

  Actual Average Record
Temperature  
Mean Temperature 68 °F -  
Max Temperature 76 °F 70 °F 78 °F (2006)
Min Temperature 62 °F 62 °F 55 °F (2011)
Cooling Degree Days 4    
Growing Degree Days 18 (Base 50)    
Moisture  
Dew Point 66 °F    
Average Humidity 86    
Maximum Humidity 94    
Minimum Humidity 78    
Precipitation  
Precipitation 0.28 in - - ()
Sea Level Pressure  
Sea Level Pressure 30.02 in    
Wind  
Wind Speed 10 mph ()    
Max Wind Speed 17 mph    
Max Gust Speed -    
Visibility 5.8 miles    
Events Rain    
Averages and records for this station are not official NWS values.
T = Trace of Precipitation, MM = Missing Value Source: Averaged Metar Reports

Daily Weather History Graph

Daily Weather History Graph

Search for Another Location

Airport:

Trip Planner

Search our weather history database for the weather conditions in past years. The results will help you decide how hot, cold, wet, or windy it might be!

Date:

Astronomy

Feb. 15, 2013 Rise Set
Actual Time 7:17 AM JST 6:38 PM JST
Civil Twilight 6:53 AM JST 7:01 PM JST
Nautical Twilight 6:27 AM JST 7:28 PM JST
Astronomical Twilight 6:00 AM JST 7:54 PM JST
Moon 10:11 AM JST (2/15) 11:22 PM JST (2/15)
Length of Visible Light 12h 07m
Length of Day
11h 20m
Waxing Crescent, 25% of the Moon is Illuminated
Feb 15
Waxing Crescent
Feb 18
First Quarter
Feb 26
Full
Mar 5
Last Quarter
Mar 12
New

Hourly Weather History & Observations

Time (JST) Temp. Dew Point Humidity Pressure Visibility Wind Dir Wind Speed Gust Speed Precip Events Conditions
12:00 AM 73 °F 68 °F 79% 30.02 in - SSE 10.4 mph - -  
3:00 AM 73 °F 68 °F 80% 30.00 in 9 mi SSE 13.8 mph - -   Mostly Cloudy
6:00 AM 73 °F 68 °F 81% 30.00 in 9 mi SSE 9.2 mph - -   Mostly Cloudy
6:00 AM 71.6 °F 68.0 °F 88% 29.98 in 6.2 mi South 8.1 mph - N/A   Mostly Cloudy
7:00 AM 71.6 °F 68.0 °F 88% 30.01 in 6.2 mi South 9.2 mph - N/A   Mostly Cloudy
8:00 AM 73.4 °F 68.0 °F 83% 30.01 in 6.2 mi South 10.4 mph - N/A   Mostly Cloudy
9:00 AM 74 °F 68 °F 78% 30.04 in 9 mi South 11.5 mph - -   Mostly Cloudy
9:00 AM 73.4 °F 68.0 °F 83% 30.01 in 6.2 mi South 9.2 mph - N/A   Mostly Cloudy
10:00 AM 75.2 °F 69.8 °F 83% 30.04 in 6.2 mi SSW 8.1 mph - N/A   Mostly Cloudy
11:00 AM 75.2 °F 69.8 °F 83% 30.04 in 4.3 mi SW 9.2 mph - N/A Rain Light Rain Showers
11:15 AM 69.8 °F 66.2 °F 88% 30.04 in 2.5 mi West 9.2 mph - N/A Rain Rain Showers
11:22 AM 69.8 °F 68.0 °F 94% 30.04 in 1.9 mi West 9.2 mph - N/A Rain Heavy Rain Showers
11:33 AM 71.6 °F 68.0 °F 88% 30.04 in 2.5 mi WNW 5.8 mph - N/A Rain Light Rain Showers
11:39 AM 71.6 °F 68.0 °F 88% 30.04 in 3.7 mi WNW 5.8 mph - N/A Rain Light Rain Showers
12:00 PM 71 °F 69 °F 91% 30.04 in 5 mi WNW 11.5 mph - - Rain Light Rain Showers
12:00 PM 69.8 °F 68.0 °F 94% 30.01 in 3.7 mi WNW 10.4 mph - N/A Rain Light Rain Showers
12:25 PM 69.8 °F 68.0 °F 94% 30.01 in 2.5 mi NNE 8.1 mph - N/A Rain Light Rain
1:00 PM 69.8 °F 66.2 °F 88% 30.01 in 3.7 mi NNE 13.8 mph - N/A Rain Light Rain
2:00 PM 68.0 °F 64.4 °F 88% 30.01 in 5.0 mi North 17.3 mph - N/A Rain Light Rain
3:00 PM 68 °F 65 °F 86% 30.00 in 6 mi NNE 13.8 mph - - Rain Light Rain Showers
3:00 PM 68.0 °F 64.4 °F 88% 29.98 in 6.2 mi North 12.7 mph - N/A   Mostly Cloudy
4:00 PM 68.0 °F 64.4 °F 88% 29.98 in 6.2 mi NNE 13.8 mph - N/A Rain Light Rain
5:00 PM 66.2 °F 62.6 °F 88% 29.98 in 6.2 mi North 15.0 mph - N/A Rain Light Rain
6:00 PM 66 °F 61 °F 80% 30.04 in 12 mi NNE 11.5 mph - -   Partly Cloudy
6:00 PM 66.2 °F 60.8 °F 83% 30.01 in 6.2 mi NNE 15.0 mph - N/A   Mostly Cloudy
7:00 PM 64.4 °F 60.8 °F 88% 30.04 in 6.2 mi NNE 16.1 mph - N/A   Mostly Cloudy
8:00 PM 62.6 °F 60.8 °F 94% 30.06 in 6.2 mi NNE 17.3 mph - N/A Rain Light Rain
9:00 PM 64 °F 59 °F 79% 30.09 in 9 mi NNE 12.7 mph - - Rain Light Rain